www.pogodaiklimat.ru
ПОГОДА в Янгиюле

Архив погоды в Янгиюле (Ташкентская область, Узбекистан)

Время
и дата
01:10 28.05
01:20 28.05
01:40 28.05
01:50 28.05
02:00 28.05
02:10 28.05
02:20 28.05
02:30 28.05
02:40 28.05
02:50 28.05
03:00 28.05
03:10 28.05
03:20 28.05
03:40 28.05
03:50 28.05
04:00 28.05
04:10 28.05
04:20 28.05
04:30 28.05
04:50 28.05
05:00 28.05
05:20 28.05
05:30 28.05
05:50 28.05
06:00 28.05
06:20 28.05
06:30 28.05
06:40 28.05
07:00 28.05
07:10 28.05
07:20 28.05
07:30 28.05
07:40 28.05
07:50 28.05
08:00 28.05
08:10 28.05
08:20 28.05
08:30 28.05
08:40 28.05
08:50 28.05
09:00 28.05
09:10 28.05
09:30 28.05
09:40 28.05
09:50 28.05
10:10 28.05
10:20 28.05
10:30 28.05
10:50 28.05
11:00 28.05
11:10 28.05
11:20 28.05
11:30 28.05
11:50 28.05
12:00 28.05
12:10 28.05
12:30 28.05
13:00 28.05
13:10 28.05
13:20 28.05
13:30 28.05
13:50 28.05
14:00 28.05
14:20 28.05
14:30 28.05
14:40 28.05
14:50 28.05
15:00 28.05
15:10 28.05
15:30 28.05
15:50 28.05
16:00 28.05
16:20 28.05
16:30 28.05
16:40 28.05
16:50 28.05
17:00 28.05
17:10 28.05
17:30 28.05
17:40 28.05
17:50 28.05
18:00 28.05
18:10 28.05
18:20 28.05
18:30 28.05
18:40 28.05
18:50 28.05
19:10 28.05
19:20 28.05
19:30 28.05
19:40 28.05
19:50 28.05
20:00 28.05
20:20 28.05
20:30 28.05
20:40 28.05
20:50 28.05
21:00 28.05
21:20 28.05
21:30 28.05
21:40 28.05
21:50 28.05
22:10 28.05
22:30 28.05
22:40 28.05
22:50 28.05
23:00 28.05
23:20 28.05
23:40 28.05
00:00 29.05
00:10 29.05
00:20 29.05
00:40 29.05
00:50 29.05
01:00 29.05
01:10 29.05
01:30 29.05
01:50 29.05
02:10 29.05
02:20 29.05
02:40 29.05
02:50 29.05
03:00 29.05
03:10 29.05
03:20 29.05
03:40 29.05
03:50 29.05
04:00 29.05
04:20 29.05
04:30 29.05
04:40 29.05
04:50 29.05
05:10 29.05
05:20 29.05
05:40 29.05
05:50 29.05
06:00 29.05
06:20 29.05
06:30 29.05
06:50 29.05
07:10 29.05
07:20 29.05
07:30 29.05
07:50 29.05
Ветер
(напр.,м/с)
Видимость Явления Солнечная радиация
(Вт/м2)
Т
(С)
Тd
(С)
f
(%)
Тe
(С)
Тes
(С)
Комфортность P
(гПа)
Po
(гПа)
Тmin
(С)
Tmax
(С)
R
(мм)
СВ 2.1
{2.8}
+16.3 +8.7 60 +16 +16 1013.5 973.0 +16.5 +16.3
СВ 1.9
{2.3}
+16.0 +8.9 63 +16 +16 1013.5 973.0 +16.3 +16.0
СВ 1.9
{2.4}
+15.9 +9.5 66 +16 +16 1013.4 972.9 +16.0 +15.9
СВ 1.9
{2.4}
+15.7 +9.6 67 +16 +16 1013.4 972.9 +15.9 +15.7
СВ 1.9
{2.3}
+15.7 +9.6 67 +16 +16 1013.3 972.8 +15.7 +15.7
СВ 1.9
{2.8}
+15.7 +9.3 66 +16 +16 1013.3 972.8 +15.7 +15.7
СВ 1.5
{2.4}
+15.8 +9.2 65 +16 +16 1013.3 972.8 +15.8 +15.7
СВ 1.1
{1.6}
+16.0 +8.7 62 +17 +17 1013.3 972.8 +16.0 +15.8
СВ 1.2
{2.0}
+15.7 +9.7 68 +16 +16 1013.3 972.8 +16.0 +15.7
СВ 1.6
{2.2}
+15.3 +10.1 71 +15 +15 1013.3 972.8 +15.7 +15.3
СВ 1.5
{2.3}
+15.4 +9.2 66 +16 +16 1013.3 972.8 +15.4 +15.3
В 1.1
{1.4}
+14.9 +10.1 73 +15 +15 1013.3 972.8 +15.4 +14.9
В 0.5
{0.8}
+14.0 +12.4 90 +15 +15 1013.3 972.8 +14.9 +14.0
СВ 1.5
{1.8}
+13.3 +13.3 100 +13 +13 1013.3 972.8 +13.5 +13.3
СВ 1.6
{2.2}
+13.4 +13.4 100 +13 +13 1013.3 972.8 +13.4 +13.3
СВ 1.9
{2.4}
+13.8 +12.5 92 +13 +13 1013.3 972.8 +13.8 +13.4
СВ 1.6
{2.4}
+14.0 +11.9 87 +14 +14 1013.4 972.9 +14.0 +13.8
В 1.4
{1.9}
+14.4 +11.2 81 +14 +14 1013.6 973.1 +14.4 +14.0
СВ 1.2
{1.8}
+13.6 +13.0 96 +14 +14 1013.7 973.2 +14.4 +13.6
В 0.5
{0.8}
+12.5 +12.5 100 +13 +13 1013.8 973.3 +12.8 +12.5
С 1.2
{1.6}
+12.1 +12.1 100 +12 +12 1013.9 973.4 +12.5 +12.1
СВ 0.7
{1.1}
+12.7 +12.7 100 +13 +13 1014.1 973.6 +12.7 +12.4
СВ 0.9
{1.5}
+13.1 +13.1 100 +13 +13 1014.2 973.7 +13.1 +12.7
СВ 1.3
{1.9}
+14.2 +14.2 100 +14 +14 1014.3 973.8 +14.2 +13.6
СВ 1.4
{2.3}
+15.3 +14.7 96 +15 +15 1014.4 973.9 +15.3 +14.2
СВ 0.9
{1.5}
+17.0 +13.4 80 +18 +18 1014.4 973.9 +17.0 +16.2
С 1.2
{1.9}
+17.5 +13.7 78 +18 +18 1014.4 973.9 +17.5 +17.0
СВ 1.4
{2.2}
+18.1 +12.9 72 +19 +19 1014.4 973.9 +18.1 +17.5
С 1.4
{2.3}
+19.3 +10.8 58 +21 +21 комфорт 1014.5 974.0 +19.3 +18.8
СВ 1.4
{2.3}
+20.3 +10.3 52 +23 +23 комфорт 1014.5 974.0 +20.3 +19.3
С 1.2
{2.2}
+21.0 +10.5 51 +24 +24 комфорт 1014.5 974.0 +21.0 +20.3
СВ 1.2
{2.1}
+21.7 +8.9 44 +23 +23 комфорт 1014.5 974.0 +21.7 +21.0
В 1.0
{1.6}
+22.5 +9.7 44 +24 +24 комфорт 1014.6 974.1 +22.5 +21.7
ЮВ 0.9
{1.5}
+23.0 +9.2 41 +24 +24 комфорт 1014.6 974.1 +23.0 +22.5
ЮВ 0.9
{1.7}
+23.2 +9.6 42 +25 +25 комфорт 1014.8 974.2 +23.2 +23.0
ЮВ 1.1
{2.0}
+23.8 +7.1 34 +24 +24 комфорт 1014.8 974.2 +23.8 +23.1
ЮВ 0.8
{2.8}
+23.9 +10.1 42 +25 +25 комфорт 1014.9 974.3 +24.0 +23.8
Ю 1.4
{2.9}
+22.6 +11.2 49 +25 +25 комфорт 1014.9 974.3 +23.9 +22.6
Ю 1.4
{2.5}
+22.8 +10.4 45 +25 +25 комфорт 1014.9 974.3 +22.8 +22.3
ЮЗ 1.8
{3.4}
+22.6 +12.4 52 +25 +25 комфорт 1015.0 974.4 +22.8 +22.6
ЮЗ 1.6
{3.0}
+23.7 +13.3 52 +26 +26 жарко 1015.0 974.4 +23.7 +22.6
СЗ 1.8
{3.1}
+24.7 +8.2 35 +25 +25 комфорт 1014.9 974.3 +24.7 +23.7
СЗ 2.5
{5.2}
+25.9 +9.2 35 +26 +26 жарко 1014.9 974.3 +25.9 +25.3
СЗ 3.6
{5.8}
+25.6 +8.3 33 +26 +26 жарко 1015.0 974.4 +26.0 +25.5
СЗ 3.0
{4.5}
+26.5 +7.5 30 +26 +26 жарко 1015.0 974.4 +26.7 +25.6
СЗ 3.6
{5.5}
+26.7 +5.1 25 +26 +26 жарко 1015.0 974.4 +26.8 +26.4
СЗ 3.1
{5.2}
+27.1 +5.8 26 +26 +26 жарко 1015.0 974.4 +27.1 +26.6
СЗ 3.5
{5.3}
+27.4 +5.4 25 +26 +26 жарко 1015.1 974.5 +27.4 +26.8
СЗ 3.6
{6.0}
+27.8 +5.2 24 +27 +27 жарко 1015.1 974.5 +28.1 +27.5
С 3.7
{6.0}
+28.0 +3.0 20 +26 +26 жарко 1015.0 974.4 +28.1 +27.8
СЗ 3.7
{5.7}
+27.9 +4.7 23 +27 +27 жарко 1014.9 974.3 +28.2 +27.9
СЗ 4.4
{7.8}
+28.2 +2.5 19 +26 +26 жарко 1014.9 974.3 +28.6 +27.9
С 4.3
{7.0}
+28.6 +4.7 22 +27 +27 жарко 1015.0 974.4 +28.8 +28.2
СЗ 4.1
{7.0}
+28.9 +3.0 19 +27 +27 жарко 1014.9 974.4 +28.9 +28.5
СЗ 4.3
{7.0}
+29.0 +1.3 17 +27 +27 жарко 1014.9 974.4 +29.1 +28.8
СЗ 4.1
{8.0}
+29.2 -0.8 14 +26 +26 жарко 1014.9 974.4 +29.2 +28.8
СЗ 4.5
{8.5}
+28.5 +1.5 18 +26 +26 жарко 1015.0 974.4 +28.4 +27.6
С 4.6
{8.4}
+28.7 +0.7 16 +26 +26 жарко 1014.7 974.2 +29.0 +28.6
С 4.6
{8.1}
+29.1 -0.3 15 +26 +26 жарко 1014.7 974.2 +29.2 +28.7
С 4.6
{8.1}
+29.6 -0.7 14 +27 +27 жарко 1014.7 974.2 +29.6 +29.1
СЗ 4.8
{11.1}
+29.5 -0.2 15 +27 +27 жарко 1014.7 974.2 +29.6 +29.1
С 4.9
{9.2}
+29.5 -0.2 15 +27 +27 жарко 1014.7 974.2 +30.3 +29.5
С 5.4
{9.9}
+30.2 +0.9 15 +27 +27 жарко 1014.6 974.1 +30.3 +29.5
С 5.6
{9.7}
+28.1 +1.3 18 +26 +26 жарко 1014.8 974.2 +28.8 +28.1
С 4.6
{7.7}
+28.3 +0.3 16 +26 +26 жарко 1014.8 974.2 +28.4 +28.1
СЗ 4.8
{7.9}
+28.4 -1.6 14 +26 +26 жарко 1014.8 974.2 +28.7 +28.0
СЗ 4.8
{7.1}
+27.8 -1.2 15 +25 +25 комфорт 1014.8 974.2 +28.4 +27.8
СЗ 4.2
{7.4}
+27.8 -1.1 15 +25 +25 комфорт 1014.8 974.2 +27.8 +27.5
С 2.7
{4.7}
+28.4 +0.3 16 +26 +26 жарко 1014.6 974.1 +28.4 +27.7
С 5.2
{8.7}
+28.5 +1.3 17 +26 +26 жарко 1014.6 974.1 +29.6 +28.6
С 6.4
{10.0}
+28.4 +1.1 17 +26 +26 жарко 1014.6 974.1 +28.6 +28.3
С 5.9
{9.4}
+28.1 +1.7 18 +26 +26 жарко 1014.6 974.1 +28.4 +27.9
С 4.9
{8.6}
+28.4 +0.5 16 +26 +26 жарко 1014.6 974.1 +28.6 +28.4
С 4.7
{7.2}
+28.5 -0.5 15 +26 +26 жарко 1014.6 974.1 +28.6 +28.4
С 4.2
{6.8}
+28.6 +0.9 17 +26 +26 жарко 1014.6 974.1 +28.6 +28.4
С 4.5
{7.9}
+28.2 +0.2 16 +26 +26 жарко 1014.6 974.1 +28.7 +28.2
С 4.2
{7.3}
+28.3 +0.8 17 +26 +26 жарко 1014.6 974.1 +28.4 +28.2
С 4.6
{7.8}
+28.2 +0.2 16 +26 +26 жарко 1014.6 974.1 +28.4 +28.2
С 3.8
{6.6}
+28.0 +1.2 18 +26 +26 жарко 1014.6 974.1 +28.1 +27.9
С 3.8
{6.3}
+27.8 +2.4 19 +26 +26 жарко 1014.6 974.1 +28.0 +27.8
С 4.4
{8.2}
+27.5 +3.0 21 +26 +26 жарко 1014.8 974.2 +27.9 +27.5
С 4.7
{8.9}
+27.3 +1.7 19 +25 +25 комфорт 1014.8 974.2 +27.5 +27.3
С 3.8
{6.9}
+27.2 +1.4 19 +25 +25 комфорт 1014.9 974.3 +27.3 +27.2
С 3.6
{6.6}
+27.0 +3.0 21 +25 +25 комфорт 1015.0 974.4 +27.2 +26.9
С 3.5
{5.6}
+26.7 +2.8 21 +25 +25 комфорт 1015.0 974.4 +27.0 +26.7
С 3.4
{5.9}
+26.5 +3.0 22 +25 +25 комфорт 1015.0 974.4 +26.7 +26.5
С 2.7
{5.0}
+26.2 +3.8 24 +25 +25 комфорт 1015.1 974.5 +26.5 +26.2
С 2.4
{3.9}
+25.2 +4.9 27 +25 +25 комфорт 1015.3 974.7 +25.8 +25.2
С 2.2
{3.9}
+24.7 +5.5 29 +24 +24 комфорт 1015.4 974.8 +25.2 +24.7
С 2.1
{3.2}
+23.8 +6.2 32 +24 +24 комфорт 1015.4 974.8 +24.7 +23.8
СЗ 2.3
{3.5}
+22.8 +6.3 34 +23 +23 комфорт 1015.4 974.8 +23.8 +22.8
СЗ 2.3
{2.9}
+21.9 +6.4 37 +23 +23 комфорт 1015.5 974.9 +22.8 +21.9
СЗ 2.2
{3.3}
+21.1 +7.0 40 +22 +22 комфорт 1015.5 974.9 +21.9 +21.1
С 2.1
{3.4}
+20.4 +6.9 41 +22 +22 комфорт 1015.5 974.9 +20.6 +20.4
С 1.8
{2.8}
+20.7 +6.7 40 +22 +22 комфорт 1015.6 975.0 +20.7 +20.4
С 1.7
{2.1}
+20.4 +6.4 40 +22 +22 комфорт 1015.6 975.0 +20.7 +20.4
СЗ 1.6
{1.9}
+20.0 +6.8 42 +22 +22 комфорт 1015.7 975.1 +20.4 +20.1
СЗ 2.6
{5.2}
+19.2 +6.5 44 +20 +20 1015.9 975.3 +20.0 +18.8
СЗ 3.6
{5.9}
+20.5 +5.4 37 +21 +21 комфорт 1016.0 975.4 +20.7 +20.5
СЗ 3.5
{4.8}
+19.9 +5.8 40 +21 +21 комфорт 1016.1 975.5 +20.5 +19.9
СЗ 3.4
{4.6}
+19.4 +5.9 41 +20 +20 1016.1 975.5 +19.9 +19.4
СЗ 3.3
{4.5}
+19.1 +5.8 42 +20 +20 1016.2 975.6 +19.4 +19.1
С 3.5
{5.6}
+19.1 +5.7 41 +20 +20 1016.2 975.6 +19.2 +19.0
С 3.2
{5.0}
+18.3 +6.4 46 +19 +19 1016.2 975.6 +18.8 +18.3
С 3.2
{4.5}
+17.8 +6.8 48 +18 +18 1016.2 975.6 +18.3 +17.8
С 3.1
{5.0}
+18.3 +6.9 47 +19 +19 1016.2 975.6 +18.3 +17.8
С 2.9
{4.5}
+18.2 +7.1 48 +19 +19 1016.1 975.5 +18.3 +18.2
С 2.8
{4.5}
+18.0 +7.6 51 +18 +18 1016.1 975.5 +18.2 +18.0
С 3.5
{5.1}
+17.9 +7.8 52 +18 +18 1016.0 975.4 +18.0 +17.9
С 2.9
{4.6}
+17.5 +8.2 54 +18 +18 1015.9 975.3 +17.7 +17.5
С 2.9
{5.1}
+17.6 +8.3 55 +18 +18 1015.8 975.2 +17.6 +17.5
С 2.5
{4.1}
+17.4 +8.5 56 +18 +18 1015.8 975.2 +17.6 +17.4
С 2.2
{3.6}
+17.1 +8.8 58 +17 +17 1015.7 975.1 +17.3 +17.1
С 1.9
{3.3}
+16.9 +9.0 60 +17 +17 1015.7 975.1 +17.1 +16.9
СВ 2.3
{5.2}
+17.1 +9.0 59 +17 +17 1015.8 975.2 +17.1 +16.8
С 2.0
{3.7}
+16.7 +9.3 62 +17 +17 1015.7 975.1 +17.1 +16.7
СЗ 1.8
{2.8}
+15.2 +10.8 75 +15 +15 1015.8 975.2 +16.2 +15.2
С 1.3
{2.8}
+14.9 +11.2 79 +15 +15 1015.7 975.1 +14.9 +14.8
С 2.0
{3.5}
+14.7 +12.1 84 +14 +14 1015.7 975.1 +14.9 +14.7
С 1.6
{2.9}
+14.8 +12.0 83 +15 +15 1015.7 975.1 +14.8 +14.7
СВ 1.4
{2.5}
+14.7 +12.2 85 +15 +15 1015.5 974.9 +14.7 +14.7
С 1.8
{2.7}
+14.6 +12.5 87 +14 +14 1015.5 974.9 +14.7 +14.6
С 1.5
{2.5}
+14.4 +13.0 91 +14 +14 1015.5 974.9 +14.6 +14.4
С 1.1
{1.6}
+14.2 +13.4 95 +14 +14 1015.4 974.8 +14.4 +14.2
С 1.2
{1.8}
+13.8 +13.8 100 +14 +14 1015.3 974.7 +14.2 +13.8
СВ 1.2
{1.5}
+13.7 +13.7 100 +14 +14 1015.3 974.7 +13.8 +13.5
С 1.3
{1.7}
+13.1 +13.1 100 +13 +13 1015.3 974.7 +13.7 +13.1
СВ 1.1
{1.4}
+13.2 +13.2 100 +13 +13 1015.3 974.7 +13.2 +13.1
СВ 0.4
{0.6}
+13.0 +13.0 100 +14 +14 1015.4 974.8 +13.1 +13.0
СВ 0.6
{0.8}
+12.6 +12.6 100 +13 +13 1015.3 974.7 +13.0 +12.6
СВ 0.7
{0.8}
+12.4 +12.4 100 +13 +13 1015.3 974.7 +12.6 +12.4
СВ 0.6
{0.8}
+12.5 +12.5 100 +13 +13 1015.4 974.8 +12.5 +12.4
СВ 1.4
{2.3}
+12.9 +12.9 100 +12 +12 1015.5 974.9 +12.9 +12.3
СВ 1.7
{2.8}
+13.7 +13.7 100 +13 +13 1015.6 975.0 +13.7 +12.9
ЮВ 2.2
{6.0}
+14.4 +14.4 100 +14 +14 1015.9 975.3 +14.8 +14.5
Ю 1.7
{3.5}
+14.7 +14.7 100 +14 +14 1016.2 975.6 +14.7 +14.2
ЮЗ 1.3
{3.1}
+15.0 +15.0 100 +15 +15 1016.2 975.6 +15.0 +14.7
СЗ 1.1
{2.0}
+15.6 +15.6 100 +16 +16 1016.2 975.6 +15.6 +15.2
СЗ 1.1
{2.3}
+15.7 +15.7 100 +16 +16 1016.2 975.6 +15.7 +15.6
ЮЗ 0.9
{1.9}
+17.1 +16.2 95 +18 +18 1016.1 975.5 +17.1 +16.5
З 0.8
{2.0}
+18.0 +15.7 86 +19 +19 1016.2 975.6 +18.0 +17.3
ЮЗ 0.7
{1.6}
+18.6 +15.3 81 +21 +21 комфорт 1016.2 975.6 +18.6 +18.0
ЮЗ 1.0
{1.9}
+19.2 +14.7 75 +22 +22 комфорт 1016.3 975.7 +19.2 +18.6
ЮЗ 1.0
{2.1}
+20.3 +14.1 68 +24 +24 комфорт 1016.4 975.8 +20.2 +19.2
Местоположение метеостанции Янгиюль (Ташкентская область, Узбекистан): широта 41.08 долгота 69.01 высота над уровнем моря 0 м.
В архиве по умолчанию представлена погода в Янгиюле за последние 1-2 суток. Обновление информации о фактической погоде в базе происходит ежечасно! Архивные данные за месяц целиком и за предыдущие месяцы Вы можете получить, выбрав интересующий диапазон дат из раскрывающегося списка и нажав кнопку "Ввод!".
*Определитесь, кто Вы:
Внимание! Время в таблицах - местное (без учета летнего времени). Для получения всемирного времени необходимо вычесть поправку, которая равна 5 ч.
Смотрите также архив погоды на ближайших метеорологических станциях:
Партнеры нашего сайта:      
Пояснения к столбцам:
  • Ветер - указаны скорость ветра в м/с - средняя за 10 мин, порывы в срок и между сроками (в фигурных скобках) и направление, откуда дует ветер: С - северный,
  • СВ - северо-восточный, В - восточный, ЮВ - юго-восточный, Ю - южный, ЮЗ - юго-западный, З - западный, СЗ - северо-западный.
  • Видимость - горизонтальная дальность видимости в метрах или километрах. При видимости от 1 до 10 км при отсутствии осадков обычно наблюдается дымка, при ухудшении видимости до 1 км и менее - туман. В сухую погоду видимость может ухудшаться дымом, пылью или мглою.
  • Явления - указаны атмосферные явления, наблюдавшиеся в срок или в последний час перед сроком.
  • Солнечная радиация - мощность потока солнечного излучения на поверхность земли и предметов в Вт/м2.
  • T - Температура воздуха - температура, измеренная на высоте 2 м над землей.
  • Td - Температура точки росы - температура, при понижении до которой содержащийся в воздухе водяной пар достигнет насыщения.
  • f - Относительная влажность воздуха - влажноcть воздуха, измеренная на высоте 2 м над землей.
  • Te - Эффективная температура - температура, которую ощущает одетый по сезону человек в тени. Характеристика душности погоды. При расчете учитывается влияние влажности воздуха и скорости ветра на теплоощущения человека.
  • Tes - Эффективная температура на солнце - температура, которую ощущает человек, с поправкой на солнечный нагрев. Характеристика знойности погоды. Зависит от высоты солнца над горизонтом, облачности и скорости ветра. Ночью, в пасмурную погоду, а также при ветре 12 м/с и более поправка равна нулю.
  • P - Атмосферное давление - приведенное к уровню моря атмосферное давление.
  • Po - Атмосферное давление - измеренное на уровне метеостанции атмосферное давление.
  • Tmin - Минимальная температура - минимум температуры воздуха на высоте 2 м над землей.
  • Tmax - Максимальная температура - максимум температуры воздуха на высоте 2 м над землей.
  • R - Количество осадков - Количество выпавших осадков за период времени, мм. При наведении курсора мыши на число - период времени, за который выпало указанное количество осадков.